Location: Black Lake Number 5
(32.5214°N, 97.8725°W)
Time: 05:26:13
(UTC+00:00)

Daily predictions for brighter satellites

Satellite Brightness Start Highest point End
(mag) Time Altitude Azimuth Time Altitude Azimuth Time Altitude Azimuth
Cosmos 1943 Rocket 2.8 01:22:16 10° N 01:27:32 39° ENE 01:32:44 10° SE
Cosmos 2341 Rocket 4.3 01:23:41 10° SSE 01:29:36 47° E 01:35:35 10° NNE
NOSS 3-4 (A) 4.0 01:25:15 10° SW 01:30:19 53° WNW 01:35:40 10° NNE
NOSS 3-4 (C) 4.0 01:25:45 10° SW 01:30:51 54° WNW 01:36:15 10° NNE
Cosmos 2366 rocket 4.2 01:30:30 10° SSE 01:36:24 50° E 01:42:16 10° NNE
Cosmos 1703 Rocket 3.9 01:37:13 10° NNW 01:41:28 69° W 01:45:43 10° S
Cosmos 1933 Rocket 4.4 01:37:48 10° SSW 01:42:05 56° W 01:46:25 10° N
Cosmos 1733 Rocket 3.7 01:41:55 10° SSE 01:45:50 34° E 01:49:49 10° NNE
Resurs 01 Rocket 2.0 01:42:40 10° S 01:47:00 65° W 01:51:21 10° NNW
Cosmos 2278 Rocket 2.5 01:45:26 10° N 01:50:56 50° ENE 01:56:23 10° SE
Cosmos 1048 Rocket 4.3 01:46:06 10° N 01:51:03 46° ENE 01:56:02 10° SE
PSLV R/B 3.9 01:49:42 10° S 01:53:43 62° W 01:57:47 10° NNW
CZ-4 R/B 2.5 01:54:19 15° ESE 01:56:16 22° ENE 01:59:11 10° NNE
USA 32 4.3 01:53:20 10° SSE 01:58:17 45° E 02:03:14 10° NNE
Cosmos 1959 Rocket 4.5 01:53:47 10° S 02:00:04 69° E 02:06:20 10° NNE
OAO 3 Rocket 3.4 01:59:49 10° W 02:04:25 63° N 02:08:13 15° E
CZ-4B R/B 4.2 02:06:03 20° SE 02:08:11 38° ENE 02:11:44 10° N
In-Cosmos 22 Rocket 4.2 02:04:18 10° N 02:09:36 82° W 02:14:57 10° S
Cosmos 1125 Rocket 3.7 02:04:33 10° SSW 02:09:45 78° WNW 02:15:00 10° NNE
Cosmos 1821 Rocket 4.0 02:05:58 10° S 02:12:06 65° E 02:18:22 10° NNE
SL-08 R/B 4.3 02:08:19 10° NE 02:12:28 27° E 02:14:33 20° SE
SL-16 R/B 2.5 02:08:34 10° S 02:13:52 44° ESE 02:19:13 10° NE
Cosmos 2218 Rocket 4.1 02:10:40 10° S 02:16:47 80° W 02:22:57 10° N
ERS-1 Rocket 3.8 02:15:33 23° ESE 02:17:40 31° ENE 02:22:03 10° N
SJ-6B 3.9 02:14:35 10° S 02:18:02 40° W 02:21:28 10° NNW
OAO 3 Copernicus 4.5 02:18:20 10° WNW 02:23:20 67° N 02:26:20 24° E
OAO 2 Rocket 3.5 02:20:06 10° W 02:25:16 69° N 02:28:40 21° ENE
Meteor 2-15 Rocket 4.3 02:21:09 10° S 02:27:12 81° E 02:33:18 10° N
PAYLOAD B 4.5 02:27:33 26° SE 02:30:18 48° ENE 02:35:33 10° N
USA 234 3.5 02:24:35 10° NE 02:31:07 74° NW 02:37:37 10° SW
USA 59 Rocket 1.0 02:27:45 10° N 02:31:16 32° ENE 02:32:15 29° E
IRAS Rocket 4.1 02:30:04 17° SSE 02:34:21 85° ENE 02:39:51 10° NNW
Cosmos 1400 Rocket 3.2 02:31:02 10° SSW 02:34:31 54° W 02:38:04 10° N
Helios 1A Rocket 2.9 02:31:33 10° N 02:34:40 55° WNW 02:37:46 10° SSW
BREEZE-M DEB (TANK) 3.9 02:32:07 10° NW 02:35:31 85° SW 02:41:32 25° SE
Cosmos 1346 Rocket 4.1 02:36:06 10° NNE 02:38:05 22° NE 02:38:05 22° NE
Cosmos 1656 Rocket 4.3 02:37:43 10° N 02:42:47 37° ENE 02:43:52 34° E
Meteor 1-31 Rocket 2.8 02:42:18 35° S 02:43:34 64° W 02:47:04 10° NNW
Cosmos 44 3.9 02:39:41 10° SW 02:44:30 58° WNW 02:49:38 10° NNE
Geosat 3.8 02:40:39 10° NNE 02:45:38 69° ESE 02:50:35 10° SSW
SL-4 R/B 1.6 02:42:52 10° SW 02:46:37 79° SE 02:47:05 65° ENE
USA 238 DEB 4.0 02:39:34 10° NNW 02:47:21 87° WSW 02:52:18 27° SSE
Cosmos 2285 Rocket 3.9 02:41:11 10° S 02:47:29 67° ESE 02:53:46 10° NNE
USA 238 4.0 02:39:45 10° NNW 02:47:32 87° WSW 02:52:26 28° SSE
CSL-04 Rocket 4.2 02:43:58 12° S 02:49:05 59° W 02:54:34 10° NNW
Okean-O 4.0 02:53:57 24° NE 02:53:57 24° NE 02:56:36 10° NNE
SPOT 5 3.9 02:49:06 11° SSW 02:53:16 40° W 02:57:27 10° NNW
BREEZE-M DEB (TANK) 4.4 02:49:30 10° NW 02:54:17 30° NNE 02:54:31 30° NNE
SKYMED 3 4.3 02:50:41 10° N 02:54:34 77° WNW 02:55:53 40° SSW
Feng Yun 1-1 Rocket 4.1 02:53:28 32° SSE 02:56:11 86° W 03:01:38 10° NNW
Cosmos 1674 Rocket 3.4 02:54:16 10° N 02:58:33 68° ENE 02:58:33 68° ENE
Cosmos 1908 Rocket 3.4 02:59:30 68° ENE 02:59:30 68° ENE 03:03:32 10° NNE
Cosmos 2150 Rocket 3.9 02:56:41 10° SSW 03:01:48 82° WNW 03:07:00 10° NNE
Gbstr 26 Del rocket 3.3 02:56:31 10° SW 03:02:17 89° NW 03:04:53 28° NE
Okean O Rocket 2.8 03:03:31 30° NE 03:03:31 30° NE 03:06:18 10° N
MOS 1 4.3 03:03:40 38° S 03:05:55 81° WSW 03:11:35 10° NNW
Terra 1.7 03:06:02 68° S 03:06:38 88° W 03:11:20 10° NNW
Mugunghwa Rocket 4.4 03:01:44 10° WSW 03:08:00 47° S 03:08:35 46° SSE
NOSS 2-1 (D) 3.7 03:05:52 10° NNW 03:09:27 66° NNE 03:09:27 66° NNE
Cosmos 1943 Rocket 4.2 03:06:38 10° NW 03:10:54 22° W 03:15:09 10° SSW
Cosmos 1378 Rocket 4.2 03:06:55 10° NNW 03:11:08 50° W 03:12:07 41° SW
NOSS 2-1 (E) 4.1 03:13:11 10° NNW 03:16:08 47° NNE 03:16:08 47° NNE
Cosmos 2369 Rocket 3.2 03:12:51 10° N 03:17:11 32° NE 03:17:11 32° NE
ADEOS 3.6 03:19:18 63° SSW 03:20:03 74° WSW 03:25:16 10° NNW
NOSS 2-1 (C) 4.0 03:18:47 10° NNW 03:21:52 57° NNW 03:21:52 57° NNW
Cosmos 1943 3.7 03:27:20 45° NE 03:27:20 45° NE 03:31:18 10° NNE
ASTEX 1 3.5 03:26:48 68° N 03:26:48 68° N 03:31:06 10° N
CZ-4B R/B 3.5 03:25:11 48° SSW 03:26:30 62° WSW 03:32:05 10° NNW
Cosmos 1025 Rocket 3.8 03:25:34 10° NNW 03:29:02 49° NW 03:29:02 49° NW
CZ-4 R/B 3.6 03:29:16 16° WSW 03:30:11 17° W 03:32:41 10° NW
Cosmos 1934 Rocket 4.0 03:30:37 52° SSW 03:32:15 80° W 03:38:29 10° N
Milstar 3 3.8 03:55:46 10° SW 04:20:09 - E 04:02:46 54° S
Cosmos 2123 Rocket 4.4 03:58:45 10° NNW 04:04:52 56° W 04:04:52 56° W
USA 59 Rocket 2.7 04:16:34 10° WNW 04:17:48 15° W 04:17:48 15° W
Cosmos 2369 Rocket 4.4 04:57:05 10° NW 04:58:59 18° WNW 04:58:59 18° WNW
ACS3 Solar Sail 4.4 06:28:57 10° NE 06:29:12 11° NE 06:29:12 11° NE
ATLAS 3B R/B 4.3 06:46:14 10° NNW 06:50:58 32° NNE 06:50:58 32° NNE
USA 281 4.4 07:58:47 36° NE 07:58:47 36° NE 08:04:20 10° N
SL-16 R/B 4.0 08:08:47 10° N 08:11:55 27° NNE 08:11:55 27° NNE
ACS3 Solar Sail 3.5 08:10:14 10° N 08:12:45 25° NNW 08:12:45 25° NNW
USA 267 3.6 08:37:51 10° NE 08:43:24 58° N 08:43:24 58° N
ALOS 4.1 08:49:11 10° NNE 08:51:38 27° NE 08:51:38 27° NE
ADEOS II 3.2 08:55:12 10° NNE 08:59:43 37° E 08:59:43 37° E
ATLAS 5 CENTAUR R/B 3.5 09:05:36 47° ESE 09:05:37 47° ESE 09:15:53 10° NE
CZ-2D R/B 2.6 09:05:08 10° NNE 09:09:35 59° NE 09:09:35 59° NE
DELTA 2 R/B (1) 4.1 09:15:52 51° E 09:15:52 51° E 09:20:11 10° ENE
Cosmos 1354 Rocket 4.4 09:13:43 10° N 09:18:56 61° ENE 09:18:58 61° ENE
Cosmos 468 Rocket 4.5 09:26:47 52° NNW 09:26:47 52° NNW 09:30:59 10° N
Cosmos 2360 Rocket 2.3 09:21:33 10° NNW 09:27:13 73° ENE 09:29:01 44° SE
Cosmos 1766 Rocket 4.5 09:25:15 10° N 09:29:24 44° E 09:29:26 44° E
Cosmos 2333 Rocket 3.5 09:23:59 10° NNW 09:26:40 28° NW 09:26:40 28° NW
ADEOS Rocket 4.1 09:29:06 10° N 09:36:01 38° WNW 09:36:33 37° WNW
CZ-3 Stage 3 3.1 09:33:58 53° WSW 09:36:04 82° S 09:58:24 10° E
Resurs 1-4 Rocket 2.4 09:32:59 10° N 09:37:29 51° NW 09:37:29 51° NW
ISS -1.3 09:41:04 19° N 09:41:04 19° N 09:42:23 10° NNE
Cosmos 1553 Rocket 4.3 09:38:05 30° SSE 09:41:09 61° E 09:47:18 10° NNE
Cosmos 2322 Rocket 2.0 09:37:06 10° NNW 09:42:44 74° WSW 09:43:00 73° SW
USA 281 4.4 09:45:37 25° WNW 09:45:37 25° WNW 09:48:43 10° NW
SL-19 R/B 4.4 09:40:52 10° N 09:46:37 69° WNW 09:47:40 58° SW
H-2A R/B 2.0 09:45:03 10° N 09:50:11 64° WNW 09:50:28 63° W
Cosmos 1461 4.2 09:51:56 27° NNW 09:51:56 27° NNW 09:54:03 10° N
Cosmos 2219 Rocket 2.3 09:50:38 10° NNW 09:56:17 77° ENE 10:01:55 10° SSE
SL-16 R/B 4.3 09:53:06 10° NW 09:53:41 12° NW 09:53:41 12° NW
H-2A R/B 4.3 10:01:10 17° NNW 10:01:10 17° NNW 10:02:04 10° NNW
Meteor 1-11 Rocket 4.2 09:56:15 10° NNW 10:01:16 40° W 10:01:16 40° W
ARGOS 3.2 09:59:44 10° NNE 10:05:07 75° ESE 10:08:16 25° S
METEOR-M 4.1 10:01:30 10° N 10:06:47 66° WNW 10:08:23 44° SW
Cosmos 2084 Rocket 3.5 10:03:12 10° NNW 10:07:26 77° ENE 10:11:41 10° SE
Meteor 2-11 Rocket 4.4 10:02:53 10° N 10:09:03 89° W 10:15:11 10° S
Cosmos 1151 Rocket 3.9 10:07:41 17° SSE 10:10:41 47° E 10:14:44 10° NNE
Gbstr 26 Del rocket 4.3 10:09:22 10° NNW 10:12:46 34° NE 10:16:20 10° ESE
Cosmos 372 Rocket 3.9 10:08:00 10° NNW 10:13:09 84° ENE 10:18:14 10° SSE
Cosmos 1842 Rocket 3.8 10:14:10 45° WNW 10:14:10 45° WNW 10:18:14 10° N
Meteor 2-4 Rocket 4.4 10:22:34 29° W 10:23:10 30° WNW 10:27:51 10° NNW
AQUA 3.7 10:18:59 10° N 10:23:38 69° WNW 10:25:57 29° SSW
Cosmos 1758 4.4 10:22:29 10° N 10:25:56 40° E 10:29:20 10° SSE
Aureole 1 Rocket 3.6 10:21:20 10° NNW 10:25:59 53° WSW 10:31:45 10° S
USA 307 3.7 10:27:45 17° SE 10:28:12 17° ESE 10:30:10 10° ENE
ALOS 4.0 10:27:18 10° NNW 10:29:40 16° WNW 10:29:40 16° WNW
Alouette 2 Rocket 4.4 10:28:34 10° NNW 10:30:40 24° WNW 10:30:40 24° WNW
Sich 1 2.8 10:28:15 10° N 10:32:24 86° W 10:36:31 10° S
Cosmos 1417 Rocket 4.4 10:27:38 10° S 10:33:49 89° E 10:40:00 10° N
SL-08 R/B 4.5 10:30:20 10° NNW 10:36:37 69° W 10:42:53 10° S
Okean 3 Rocket 3.5 10:32:19 10° N 10:36:47 81° W 10:41:15 10° S
ADEOS II 3.4 10:35:23 10° NNW 10:39:16 21° WNW 10:40:31 20° W
Cosmos 2297 Rocket 2.2 10:34:56 14° SSW 10:39:53 87° ESE 10:45:33 10° NNE
BREEZE-M DEB (TANK) 4.3 10:37:27 10° NW 10:42:41 89° NE 10:59:03 10° SE
Cosmos 1805 Rocket 3.9 10:40:09 10° N 10:44:31 68° E 10:48:49 10° SSE
CZ-2D R/B 4.0 10:47:42 10° NW 10:49:44 12° WNW 10:50:50 12° WNW
H-2A R/B 2.4 10:47:12 10° N 10:50:53 37° WNW 10:53:10 19° SW
S3M 4.0 10:47:35 10° S 10:53:56 74° W 11:00:16 10° N
Cosmos 2263 Rocket 4.4 10:50:44 10° SSE 10:55:12 25° ESE 10:59:39 10° NE
Cosmos 158 Rocket 4.0 10:50:18 10° SSW 10:55:30 88° ESE 11:00:50 10° NNE
Cosmos 1898 Rocket 3.6 10:50:55 10° NNW 10:55:52 49° WSW 11:00:51 10° S
COSMOS 2428 2.9 10:51:03 10° NNW 10:56:46 77° ENE 11:02:26 10° SSE
Cosmos 1386 Rocket 4.5 10:51:27 10° NNW 10:57:32 63° W 11:03:42 10° S
NOSS 3-4 (A) 4.0 10:50:43 10° NW 10:57:57 62° WSW 11:06:16 10° SSE
NOSS 3-4 (C) 4.0 10:51:15 10° NW 10:58:31 62° WSW 11:06:50 10° SSE
USA 234 3.3 10:52:07 10° SE 10:58:39 84° NE 11:05:13 10° NW
SL-4 R/B 1.7 10:55:28 10° NW 10:59:13 59° SW 11:02:48 10° SSE
Cosmos 1937 Rocket 3.4 10:54:48 10° NNW 10:59:55 66° WSW 11:04:58 10° S
SL-16 R/B 2.6 10:54:13 10° S 11:00:22 62° WSW 11:06:35 10° NNW
DELTA 2 R/B (1) 4.1 10:56:33 14° W 11:01:12 50° NNW 11:06:36 10° ENE
CZ-3 R/B 3.0 10:44:14 10° W 11:08:59 69° SSW 11:15:56 10° ESE
Cosmos 2360 Rocket 3.9 11:08:53 10° W 11:10:26 11° W 11:10:32 11° W
Cosmos 1939 Rocket 2.6 11:09:00 10° N 11:12:39 85° W 11:16:19 10° SSW
Meteor 2-10 Rocket 4.4 11:09:50 10° NW 11:14:10 27° W 11:18:39 10° SSW
CZ-2C R/B 2.7 11:11:56 10° N 11:16:29 45° WNW 11:20:53 10° SW
Meteor 1-13 Rocket 4.3 11:11:45 10° S 11:17:15 83° E 11:22:46 10° N
Cosmos 1408 Rocket 4.2 11:20:55 10° NNW 11:24:46 33° W 11:28:35 10° SSW
Meteor 1-28 Rocket 2.8 11:21:41 10° S 11:24:54 61° W 11:28:08 10° NNW
Cosmos 1814 Rocket 4.2 11:21:11 10° SW 11:26:05 49° WNW 11:31:03 10° N
Cosmos 1703 3.0 11:24:08 10° SSW 11:27:14 46° W 11:30:22 10° N
